Hamorun

decayed
NORAD ID: 65732 Int'l Des: 1998-067 Owner: RSP Country: J
LEOCIRCULAR

About Hamorun

Description loading...

Altitude History

Altitude vs Time

uPlot chart will show altitude changes over time

Two-Line Element Set

1 65732U 98067XL 26047.27951905 .10199253 12460-4 79249-3 0 9991
2 65732 51.6061 154.7117 0006246 319.9198 40.1367 16.39378610 23558
Epoch: Feb 16, 2026 • Age: 594 hours

Current Status

Position data unavailable
Launch Date Aug 24, 2025
Age 0.5 years
Decay Date Feb 16, 2026
Type other

Technical Details

Classification Payload
Mass 1.00 kg
Dry Mass 1.00 kg
Total Mass 1.00 kg
Length 0.10 m
Diameter 0.10 m
Span 0.10 m
Shape Box
Manufacturer RSP
Bus Type Cubesat 1U
Phase Status Reentered
Owner/State RSP/J

Large Constellations

Loading constellations...